KF5PJP Weather Reports


time (UTC)temp
C
wind
direction
speed
KPH
gust
KPH
rain 1hr
cm
rain 24hr
cm
rain mn
cm
humidity
%
barometer
mb
20260505152901 22 343 3.2 17.7 0.00 0.00 0.00 83 1006.3
20260505151917 22 132 3.2 11.3 0.00 0.00 0.00 83 1006.5
20260505150904 22 36 1.6 16.1 0.00 0.00 0.00 83 1006.6
20260505124346 21 98 1.6 9.7 0.00 0.00 0.00 88 1006.5
20260505123923 21 347 3.2 8.0 0.00 0.00 0.00 87 1006.3
20260505123345 21 67 3.2 8.0 0.00 0.00 0.00 87 1006.3
20260505122914 21 63 0.0 8.0 0.00 0.00 0.00 87 1006.2
20260505121916 21 126 3.2 9.7 0.00 0.00 0.00 87 1006.1
20260505120908 21 53 3.2 12.9 0.00 0.00 0.00 87 1006.1
20260505115847 21 96 0.0 8.0 0.00 0.00 0.00 87 1005.8
20260505115432 21 58 3.2 11.3 0.00 0.00 0.00 87 1005.7
20260505114411 21 76 1.6 11.3 0.00 0.00 0.00 87 1005.7
20260505113927 21 92 3.2 11.3 0.00 0.00 0.00 87 1005.7
20260505113454 21 92 1.6 6.4 0.00 0.00 0.00 87 1005.6
20260505112843 21 121 0.0 6.4 0.00 0.00 0.00 87 1005.7
20260505111355 20 77 0.0 11.3 0.00 0.00 0.00 87 1005.8
20260505110346 20 69 1.6 19.3 0.00 0.00 0.00 86 1005.8
20260505101849 20 61 1.6 11.3 0.00 0.00 0.00 87 1005.6
20260505101430 20 59 1.6 11.3 0.00 0.00 0.00 86 1005.6
20260505100852 20 78 1.6 11.3 0.00 0.00 0.00 86 1005.6
20260505100434 20 33 1.6 11.3 0.00 0.00 0.00 87 1005.7
20260505095409 20 74 1.6 6.4 0.00 0.00 0.00 86 1005.5
20260505094940 20 63 0.0 6.4 0.00 0.00 0.00 87 1005.5
20260505093906 20 53 1.6 17.7 0.00 0.00 0.00 87 1005.5
20260505093341 20 39 0.0 4.8 0.00 0.00 0.00 87 1005.5
20260505092907 20 65 1.6 4.8 0.00 0.00 0.00 87 1005.6
20260505092440 20 281 1.6 8.0 0.00 0.00 0.00 87 1005.7
20260505091856 20 68 1.6 11.3 0.00 0.00 0.00 87 1005.8
20260505091426 20 18 1.6 11.3 0.00 0.00 0.00 87 1005.7
20260505090849 20 69 1.6 8.0 0.00 0.00 0.00 87 1005.8
20260505090435 20 59 0.0 4.8 0.00 0.00 0.00 87 1005.9
20260505085858 20 27 1.6 4.8 0.00 0.00 0.00 87 1005.8
20260505085415 20 245 1.6 4.8 0.00 0.00 0.00 87 1005.9
20260505084357 20 346 0.0 14.5 0.00 0.00 0.00 87 1006.1
20260505083933 19 76 1.6 4.8 0.00 0.00 0.00 87 1006.1
20260505082932 19 273 0.0 4.8 0.00 0.00 0.00 87 1006.2
20260505082350 19 59 0.0 4.8 0.00 0.00 0.00 87 1006.2
20260505081927 19 113 1.6 4.8 0.00 0.00 0.00 87 1006.3
20260505081353 19 151 0.0 8.0 0.00 0.00 0.00 87 1006.3
20260505080411 19 132 0.0 3.2 0.00 0.00 0.00 87 1006.3
20260505075840 19 255 0.0 1.6 0.00 0.00 0.00 87 1006.4
20260505075411 19 302 0.0 1.6 0.00 0.00 0.00 87 1006.6
20260505074956 19 85 0.0 4.8 0.00 0.00 0.00 87 1006.5
20260505074344 19 82 1.6 4.8 0.00 0.00 0.00 86 1006.6
20260505073925 19 79 0.0 4.8 0.00 0.00 0.00 86 1006.6
20260505072910 19 57 1.6 4.8 0.00 0.00 0.00 86 1006.7
20260505071853 19 234 0.0 8.0 0.00 0.00 0.00 86 1006.9
20260505071433 19 277 1.6 8.0 0.00 0.00 0.00 86 1006.9
20260505070849 20 150 0.0 4.8 0.00 0.00 0.00 85 1007.0
20260505065846 20 115 0.0 3.2 0.00 0.00 0.00 85 1007.1
20260505065346 20 60 1.6 3.2 0.00 0.00 0.00 85 1007.0
20260505064905 20 130 0.0 3.2 0.00 0.00 0.00 85 1007.0
20260505064354 20 108 0.0 3.2 0.00 0.00 0.00 85 1007.0
20260505063916 20 35 0.0 3.2 0.00 0.00 0.00 84 1007.1
20260505063401 20 115 0.0 3.2 0.00 0.00 0.00 84 1007.2
20260505062913 20 15 0.0 1.6 0.00 0.00 0.00 84 1007.3
20260505062353 20 69 0.0 3.2 0.00 0.00 0.00 84 1007.4
20260505061910 20 96 0.0 3.2 0.00 0.00 0.00 84 1007.5
20260505061358 20 323 0.0 1.6 0.00 0.00 0.00 83 1007.5
20260505060854 20 256 0.0 3.2 0.00 0.00 0.00 83 1007.6
20260505060356 20 81 0.0 3.2 0.00 0.00 0.00 83 1007.5
20260505055852 20 30 0.0 0.0 0.00 0.00 0.00 82 1007.4
20260505055344 20 35 0.0 3.2 0.00 0.00 0.00 82 1007.5
20260505054917 20 38 0.0 3.2 0.00 0.00 0.00 82 1007.4
20260505054357 20 254 0.0 4.8 0.00 0.00 0.00 81 1007.5
20260505053856 20 209 0.0 6.4 0.00 0.00 0.00 81 1007.5
20260505053356 20 252 0.0 6.4 0.00 0.00 0.00 81 1007.6
20260505052840 20 155 0.0 3.2 0.00 0.00 0.00 81 1007.7
20260505052405 20 260 0.0 3.2 0.00 0.00 0.00 80 1007.6
20260505051859 20 27 0.0 3.2 0.00 0.00 0.00 80 1007.5
20260505051356 21 217 0.0 3.2 0.00 0.00 0.00 80 1007.6
20260505050845 21 325 0.0 3.2 0.00 0.00 0.00 80 1007.8
20260505050359 21 69 0.0 4.8 0.00 0.00 0.00 79 1007.9
20260505041420 21 263 0.0 0.0 0.00 0.00 0.00 77 1007.8
20260505040842 21 198 0.0 3.2 0.00 0.00 0.00 76 1007.8
20260505035856 21 215 0.0 3.2 0.00 0.00 0.00 76 1007.9
20260505035434 21 86 0.0 3.2 0.00 0.00 0.00 75 1007.9
20260505034843 21 132 0.0 3.2 0.00 0.00 0.00 75 1007.9
20260505034422 21 58 0.0 3.2 0.00 0.00 0.00 75 1007.8
20260505033933 21 97 0.0 0.0 0.00 0.00 0.00 74 1007.9
20260505032909 22 97 0.0 0.0 0.00 0.00 0.00 73 1007.8
20260505031855 22 100 0.0 1.6 0.00 0.00 0.00 72 1007.6
20260505031428 22 100 0.0 1.6 0.00 0.00 0.00 72 1007.7
20260505030838 22 100 0.0 1.6 0.00 0.00 0.00 71 1007.5
20260505025852 22 86 0.0 1.6 0.00 0.00 0.00 70 1007.6
20260505025426 22 238 0.0 1.6 0.00 0.00 0.00 70 1007.6
20260505024846 22 108 0.0 3.2 0.00 0.00 0.00 70 1007.5
20260505024414 22 281 0.0 3.2 0.00 0.00 0.00 70 1007.3
20260505023407 22 263 0.0 1.6 0.00 0.00 0.00 70 1007.4
20260505022357 22 117 0.0 1.6 0.00 0.00 0.00 69 1007.5
20260505021937 22 119 0.0 4.8 0.00 0.00 0.00 69 1007.4
20260505021457 22 109 0.0 4.8 0.00 0.00 0.00 69 1007.5
20260505020850 22 103 0.0 1.6 0.00 0.00 0.00 68 1007.6
20260505020427 22 103 0.0 1.6 0.00 0.00 0.00 68 1007.6
20260505015949 22 128 0.0 1.6 0.00 0.00 0.00 68 1007.6
20260505015345 22 86 0.0 1.6 0.00 0.00 0.00 67 1007.6
20260505014926 22 86 0.0 1.6 0.00 0.00 0.00 67 1007.5
20260505014338 23 86 0.0 1.6 0.00 0.00 0.00 66 1007.5
20260505013903 23 86 0.0 3.2 0.00 0.00 0.00 66 1007.4
20260505013434 23 126 0.0 1.6 0.00 0.00 0.00 66 1007.3
20260505012939 23 62 0.0 1.6 0.00 0.00 0.00 65 1007.3
20260505012353 23 82 0.0 1.6 0.00 0.00 0.00 64 1007.3
20260505011922 23 70 0.0 4.8 0.00 0.00 0.00 64 1007.3
20260505011351 23 96 1.6 4.8 0.00 0.00 0.00 63 1007.3
20260505010928 23 75 0.0 4.8 0.00 0.00 0.00 63 1007.4
20260505005901 24 100 0.0 3.2 0.00 0.00 0.00 62 1007.4
20260505005416 24 100 0.0 3.2 0.00 0.00 0.00 62 1007.2
20260505004409 24 288 0.0 8.0 0.00 0.00 0.00 60 1007.3
20260505003349 25 106 0.0 0.0 0.00 0.00 0.00 60 1007.2
20260505002905 25 288 0.0 4.8 0.00 0.00 0.00 59 1007.2
20260505001916 25 281 0.0 1.6 0.00 0.00 0.00 59 1007.3
20260505000914 25 88 0.0 3.2 0.00 0.00 0.00 58 1007.4
20260504235912 25 292 0.0 3.2 0.00 0.00 0.00 56 1007.5
20260504235454 26 254 1.6 4.8 0.00 0.00 0.00 56 1007.5
20260504234847 26 109 0.0 3.2 0.00 0.00 0.00 56 1007.6
20260504233902 26 253 1.6 4.8 0.00 0.00 0.00 55 1007.9
20260504233433 26 238 0.0 4.8 0.00 0.00 0.00 55 1007.9
20260504232407 26 105 1.6 11.3 0.00 0.00 0.00 54 1008.0
20260504231935 26 142 1.6 11.3 0.00 0.00 0.00 54 1007.9
20260504230902 26 256 1.6 9.7 0.00 0.00 0.00 54 1007.9
20260504225910 27 340 0.0 11.3 0.00 0.00 0.00 53 1008.0
20260504224902 27 80 0.0 4.8 0.00 0.00 0.00 52 1008.1
20260504224437 27 22 0.0 4.8 0.00 0.00 0.00 52 1008.2
20260504223852 27 16 1.6 4.8 0.00 0.00 0.00 52 1008.2
20260504222840 27 130 0.0 4.8 0.00 0.00 0.00 51 1008.4
20260504221909 27 37 3.2 11.3 0.00 0.00 0.00 51 1008.4
20260504220851 28 338 3.2 12.9 0.00 0.00 0.00 48 1008.4
20260504220431 28 77 3.2 12.9 0.00 0.00 0.00 48 1008.4
20260504215411 28 96 1.6 6.4 0.00 0.00 0.00 48 1008.7
20260504214405 28 135 1.6 11.3 0.00 0.00 0.00 47 1008.8
20260504213846 28 269 0.0 8.0 0.00 0.00 0.00 47 1009.0
20260504213414 28 323 1.6 8.0 0.00 0.00 0.00 47 1009.0
20260504212841 27 13 1.6 8.0 0.00 0.00 0.00 46 1009.2
20260504212402 27 54 0.0 8.0 0.00 0.00 0.00 47 1009.4
20260504211932 27 113 0.0 6.4 0.00 0.00 0.00 48 1009.4
20260504211345 27 248 1.6 6.4 0.00 0.00 0.00 45 1009.5
20260504210901 27 36 1.6 6.4 0.00 0.00 0.00 47 1009.6
20260504210348 27 103 1.6 6.4 0.00 0.00 0.00 47 1009.7
20260504205920 27 87 1.6 8.0 0.00 0.00 0.00 48 1009.9
20260504205433 27 86 1.6 12.9 0.00 0.00 0.00 46 1010.0
20260504204847 27 122 3.2 12.9 0.00 0.00 0.00 44 1010.0
20260504204403 28 291 4.8 12.9 0.00 0.00 0.00 44 1010.2
20260504203913 28 28 0.0 4.8 0.00 0.00 0.00 48 1010.2
20260504203423 28 64 1.6 12.9 0.00 0.00 0.00 45 1010.3
20260504202436 27 145 1.6 11.3 0.00 0.00 0.00 46 1010.4
20260504201904 28 90 3.2 9.7 0.00 0.00 0.00 44 1010.5
20260504200857 27 262 1.6 14.5 0.00 0.00 0.00 45 1010.7
20260504195856 27 44 3.2 14.5 0.00 0.00 0.00 45 1010.8
20260504194907 27 137 1.6 17.7 0.00 0.00 0.00 47 1011.0
20260504193901 27 33 1.6 8.0 0.00 0.00 0.00 47 1011.1
20260504193407 27 85 1.6 12.9 0.00 0.00 0.00 45 1011.3
20260504192419 27 71 1.6 4.8 0.00 0.00 0.00 46 1011.3
20260504191426 27 78 3.2 9.7 0.00 0.00 0.00 45 1011.6
20260504190840 27 103 1.6 9.7 0.00 0.00 0.00 46 1011.6
20260504190436 27 69 3.2 8.0 0.00 0.00 0.00 45 1011.7
20260504185851 27 236 0.0 8.0 0.00 0.00 0.00 46 1011.8
20260504185431 27 32 1.6 8.0 0.00 0.00 0.00 44 1011.8
20260504184849 27 131 1.6 11.3 0.00 0.00 0.00 46 1011.9
20260504184420 27 40 1.6 11.3 0.00 0.00 0.00 47 1011.9
20260504183412 27 342 1.6 9.7 0.00 0.00 0.00 47 1012.0
20260504182952 27 325 0.0 3.2 0.00 0.00 0.00 45 1012.2
20260504182347 27 215 1.6 3.2 0.00 0.00 0.00 45 1012.4
20260504181358 26 86 3.2 12.9 0.00 0.00 0.00 45 1012.6
20260504180348 26 140 0.0 4.8 0.00 0.00 0.00 47 1012.5
20260504175913 26 150 1.6 9.7 0.00 0.00 0.00 46 1012.7
20260504175340 26 338 1.6 9.7 0.00 0.00 0.00 46 1012.6
20260504174921 26 61 1.6 11.3 0.00 0.00 0.00 46 1012.8
20260504174459 26 66 3.2 11.3 0.00 0.00 0.00 45 1012.8
20260504173843 26 66 3.2 11.3 0.00 0.00 0.00 46 1013.0
20260504172853 26 92 1.6 4.8 0.00 0.00 0.00 49 1013.2
20260504172424 25 215 1.6 8.0 0.00 0.00 0.00 47 1013.2
20260504171400 25 82 1.6 11.3 0.00 0.00 0.00 50 1013.4
20260504170358 25 49 3.2 8.0 0.00 0.00 0.00 49 1013.3
20260504160410 22 80 3.2 9.7 0.00 0.00 0.00 55 1014.0